• In India
  • List of Countries
  • For 7 days
  • Water Temperature
  • Satellite Maps
  • Weather Map
  • Weather Widgets
  • user-avatar
    Login

    Hourly Weather Bhubaneswar

    Today, 19 February, Tuesday

    Time Temperature Precipitation Wind Pressure Humidity
    00:00 +24°C° 0 mm 2 mps 756 mmHg 87%
    01:00 +24°C° 0 mm 1 mps 756 mmHg 90%
    02:00 +24°C° 0 mm 1 mps 756 mmHg 93%
    03:00 +24°C° 0 mm 1 mps 756 mmHg 97%
    04:00 +24°C° 0 mm 1 mps 756 mmHg 97%
    05:00 +23°C° 0 mm 1 mps 756 mmHg 97%
    06:00 +21°C° 0 mm 0 mps 756 mmHg 95%
    07:00 +23°C° 0 mm 0 mps 757 mmHg 88%
    08:00 +24°C° 0 mm 0 mps 758 mmHg 80%
    09:00 +26°C° 0 mm 0 mps 758 mmHg 72%
    10:00 +28°C° 0 mm 0 mps 758 mmHg 59%
    11:00 +31°C° 0 mm 0 mps 758 mmHg 45%
    12:00 +35°C° 0 mm 1 mps 759 mmHg 34%
    13:00 +35°C° 0 mm 1 mps 758 mmHg 34%
    14:00 +36°C° 0 mm 2 mps 758 mmHg 34%
    15:00 +36°C° 0 mm 3 mps 757 mmHg 34%
    16:00 +35°C° 0 mm 4 mps 757 mmHg 43%
    17:00 +33°C° 0 mm 5 mps 757 mmHg 51%
    18:00 +30°C° 0 mm 4 mps 757 mmHg 60%
    19:00 +29°C° 0 mm 3 mps 758 mmHg 67%
    20:00 +28°C° 0 mm 3 mps 758 mmHg 75%
    21:00 +26°C° 0 mm 3 mps 759 mmHg 82%
    22:00 +26°C° 0 mm 2 mps 759 mmHg 86%
    23:00 +26°C° 0 mm 2 mps 759 mmHg 90%

    Tomorrow, 20 February, Wednesday

    Time Temperature Precipitation Wind Pressure Humidity
    00:00 +25°C° 0 mm 2 mps 759 mmHg 93%
    01:00 +25°C° 0 mm 2 mps 759 mmHg 94%
    02:00 +25°C° 0 mm 2 mps 759 mmHg 95%
    03:00 +24°C° 0 mm 2 mps 759 mmHg 96%
    04:00 +24°C° 0 mm 2 mps 759 mmHg 96%
    05:00 +24°C° 0 mm 2 mps 759 mmHg 96%
    06:00 +24°C° 0 mm 1 mps 759 mmHg 96%
    07:00 +25°C° 0 mm 2 mps 759 mmHg 89%
    08:00 +27°C° 0 mm 2 mps 760 mmHg 81%
    09:00 +28°C° 0 mm 2 mps 760 mmHg 73%
    10:00 +30°C° 0 mm 2 mps 760 mmHg 61%
    11:00 +34°C° 0 mm 2 mps 760 mmHg 50%
    12:00 +36°C° 0 mm 2 mps 760 mmHg 38%
    13:00 +36°C° 0 mm 2 mps 759 mmHg 36%
    14:00 +37°C° 0 mm 2 mps 759 mmHg 33%
    15:00 +38°C° 0 mm 3 mps 758 mmHg 31%
    16:00 +36°C° 0 mm 4 mps 758 mmHg 39%
    17:00 +34°C° 0 mm 5 mps 758 mmHg 46%
    18:00 +32°C° 0 mm 5 mps 758 mmHg 54%
    19:00 +29°C° 0 mm 4 mps 759 mmHg 63%
    20:00 +28°C° 0 mm 3 mps 760 mmHg 71%
    21:00 +26°C° 0 mm 2 mps 760 mmHg 80%
    22:00 +26°C° 0 mm 2 mps 760 mmHg 83%
    23:00 +25°C° 0 mm 2 mps 761 mmHg 86%

    Day after tomorrow, 21 February, Thursday

    Time Temperature Precipitation Wind Pressure Humidity
    00:00 +25°C° 0 mm 1 mps 761 mmHg 90%
    01:00 +25°C° 0 mm 1 mps 760 mmHg 91%
    02:00 +24°C° 0 mm 1 mps 760 mmHg 93%
    03:00 +24°C° 0 mm 1 mps 760 mmHg 94%
    04:00 +24°C° 0 mm 1 mps 760 mmHg 94%
    05:00 +23°C° 0 mm 1 mps 760 mmHg 94%
    06:00 +23°C° 0 mm 1 mps 760 mmHg 94%
    07:00 +25°C° 0 mm 1 mps 760 mmHg 83%
    08:00 +27°C° 0 mm 1 mps 761 mmHg 72%
    09:00 +29°C° 0 mm 2 mps 762 mmHg 61%
    10:00 +31°C° 0 mm 2 mps 761 mmHg 50%
    11:00 +34°C° 0 mm 2 mps 761 mmHg 38%
    12:00 +37°C° 0 mm 2 mps 761 mmHg 27%
    13:00 +38°C° 0 mm 2 mps 760 mmHg 25%
    14:00 +38°C° 0 mm 2 mps 759 mmHg 23%
    15:00 +39°C° 0 mm 2 mps 758 mmHg 21%
    16:00 +37°C° 0 mm 3 mps 758 mmHg 25%
    17:00 +35°C° 0 mm 4 mps 758 mmHg 29%
    18:00 +33°C° 0 mm 5 mps 758 mmHg 33%
    19:00 +30°C° 0 mm 4 mps 758 mmHg 43%
    20:00 +28°C° 0 mm 3 mps 759 mmHg 53%
    21:00 +26°C° 0 mm 3 mps 759 mmHg 62%
    22:00 +26°C° 0 mm 2 mps 759 mmHg 66%
    23:00 +25°C° 0 mm 2 mps 759 mmHg 70%

    22 February, Friday

    Time Temperature Precipitation Wind Pressure Humidity
    00:00 +25°C° 0 mm 2 mps 759 mmHg 74%
    01:00 +25°C° 0 mm 2 mps 758 mmHg 74%
    02:00 +25°C° 0 mm 2 mps 758 mmHg 73%
    03:00 +24°C° 0 mm 2 mps 757 mmHg 73%
    04:00 +24°C° 0 mm 2 mps 757 mmHg 72%
    05:00 +24°C° 0 mm 2 mps 757 mmHg 70%
    06:00 +24°C° 0 mm 1 mps 757 mmHg 69%
    07:00 +26°C° 0 mm 1 mps 758 mmHg 60%
    08:00 +28°C° 0 mm 2 mps 759 mmHg 50%
    09:00 +30°C° 0 mm 2 mps 759 mmHg 41%
    10:00 +34°C° 0 mm 2 mps 759 mmHg 35%
    11:00 +37°C° 0 mm 2 mps 759 mmHg 28%
    12:00 +39°C° 0 mm 2 mps 759 mmHg 22%
    13:00 +40°C° 0 mm 2 mps 758 mmHg 21%
    14:00 +41°C° 0 mm 2 mps 757 mmHg 19%
    15:00 +41°C° 0 mm 2 mps 756 mmHg 18%
    16:00 +39°C° 0 mm 2 mps 755 mmHg 22%
    17:00 +37°C° 0 mm 3 mps 755 mmHg 25%
    18:00 +36°C° 0 mm 3 mps 755 mmHg 29%
    19:00 +33°C° 0 mm 3 mps 756 mmHg 37%
    20:00 +30°C° 0 mm 3 mps 757 mmHg 44%
    21:00 +28°C° 0 mm 3 mps 757 mmHg 52%
    22:00 +28°C° 0 mm 3 mps 757 mmHg 55%
    23:00 +27°C° 0 mm 3 mps 757 mmHg 57%

    23 February, Saturday

    Time Temperature Precipitation Wind Pressure Humidity
    00:00 +27°C° 0 mm 2 mps 757 mmHg 60%
    01:00 +26°C° 0 mm 2 mps 757 mmHg 63%
    02:00 +26°C° 0 mm 2 mps 756 mmHg 65%
    03:00 +26°C° 0 mm 2 mps 756 mmHg 67%
    04:00 +26°C° 0 mm 2 mps 756 mmHg 68%
    05:00 +25°C° 0 mm 2 mps 756 mmHg 69%
    06:00 +25°C° 0 mm 2 mps 756 mmHg 70%
    07:00 +27°C° 0 mm 3 mps 756 mmHg 60%
    08:00 +30°C° 0 mm 3 mps 757 mmHg 51%
    09:00 +33°C° 0 mm 4 mps 757 mmHg 41%
    10:00 +36°C° 0 mm 4 mps 757 mmHg 34%
    11:00 +38°C° 0 mm 4 mps 757 mmHg 27%
    12:00 +41°C° 0 mm 4 mps 756 mmHg 21%
    13:00 +42°C° 0 mm 4 mps 755 mmHg 20%
    14:00 +42°C° 0 mm 4 mps 754 mmHg 19%
    15:00 +43°C° 0 mm 4 mps 753 mmHg 18%
    16:00 +41°C° 0 mm 4 mps 753 mmHg 22%
    17:00 +37°C° 0 mm 4 mps 753 mmHg 26%
    18:00 +35°C° 0 mm 5 mps 753 mmHg 31%
    19:00 +34°C° 0 mm 4 mps 754 mmHg 36%
    20:00 +33°C° 0 mm 4 mps 754 mmHg 41%
    21:00 +30°C° 0 mm 4 mps 755 mmHg 46%
    22:00 +29°C° 0 mm 3 mps 755 mmHg 49%
    23:00 +29°C° 0 mm 3 mps 755 mmHg 53%

    24 February, Sunday

    Time Temperature Precipitation Wind Pressure Humidity
    00:00 +28°C° 0 mm 3 mps 755 mmHg 56%
    01:00 +28°C° 0 mm 3 mps 755 mmHg 58%
    02:00 +27°C° 0 mm 3 mps 754 mmHg 60%
    03:00 +27°C° 0 mm 2 mps 754 mmHg 62%
    04:00 +27°C° 0 mm 2 mps 754 mmHg 62%
    05:00 +27°C° 0 mm 2 mps 754 mmHg 63%
    06:00 +27°C° 0 mm 1 mps 754 mmHg 64%
    07:00 +28°C° 0 mm 2 mps 755 mmHg 56%
    08:00 +30°C° 0 mm 3 mps 755 mmHg 49%
    09:00 +33°C° 0 mm 4 mps 756 mmHg 42%
    10:00 +35°C° 0 mm 5 mps 756 mmHg 35%
    11:00 +37°C° 0 mm 5 mps 755 mmHg 29%
    12:00 +41°C° 0 mm 6 mps 755 mmHg 23%
    13:00 +41°C° 0 mm 6 mps 754 mmHg 23%
    14:00 +41°C° 0 mm 7 mps 753 mmHg 23%
    15:00 +41°C° 0 mm 7 mps 752 mmHg 23%
    16:00 +39°C° 0 mm 7 mps 752 mmHg 29%
    17:00 +36°C° 0 mm 7 mps 752 mmHg 34%
    18:00 +34°C° 0 mm 7 mps 752 mmHg 40%
    19:00 +33°C° 0 mm 7 mps 752 mmHg 44%
    20:00 +32°C° 0 mm 7 mps 753 mmHg 49%
    21:00 +30°C° 0 mm 7 mps 754 mmHg 53%
    22:00 +29°C° 0 mm 6 mps 754 mmHg 55%
    23:00 +29°C° 0 mm 5 mps 754 mmHg 58%
    Show more